Home   Weather   Mersin   Past weeks

Flag for Turkey Past Weather in Mersin, Turkey — Yesterday and Last 2 Weeks

Now
82 °F

Scattered clouds.


Feels Like: 82 °F
Forecast: 61 / 79 °F
Wind: 10 mph from Southwest

Location: Adana / Sakirpasa

Current Time: May 29, 2017 at 4:13:46 pm

Latest Report: May 29, 2017 at 3:20 pm


Visibility: N/A

Pressure: 29.89 "Hg

Humidity: 45%

Dew Point: 59 °F

Location of MersinLocation

Past Weather in Mersin — Graph

°F

Mersin Temperature Yesterday

Maximum temperature yesterday: 86 °F (at 2:20 pm)
Minimum temperature yesterday: 61 °F (at 2:20 am)
Average temperature yesterday: 74 °F

High & Low Weather Summary for the Past Weeks

 TemperatureHumidityPressure
High88 °F (May 15, 2:20 pm)100% (May 16, 4:20 am)30.01 "Hg (May 16, 4:20 am)
Low54 °F (May 21, 5:20 am)28% (May 17, 10:20 am)29.68 "Hg (May 19, 5:20 am)
Average70 °F71%29.84 "Hg
* Reported May 14 2:20 pm — May 29 2:50 pm, Mersin. Weather by CustomWeather, © 2017

Note: Actual official high and low records may vary slightly from our data, if they occured in-between our weather recording intervals... More about our weather records

Advertising

Mersin Weather History for the Previous 24 Hours

Scroll right to see more
 ConditionsComfort  
Time TempWeatherWind HumidityBarometerVisibility
2:50 pm
Mon, May 29
82 °FScattered clouds.14 mph48%29.89 "HgN/A
2:20 pm82 °FScattered clouds.12 mph48%29.89 "HgN/A
1:50 pm82 °FScattered clouds.9 mph51%29.89 "HgN/A
1:20 pm81 °FScattered clouds.7 mph54%29.89 "HgN/A
12:50 pm81 °FScattered clouds.8 mph54%29.89 "HgN/A
12:20 pm79 °FScattered clouds.7 mph54%29.89 "HgN/A
11:50 am81 °FScattered clouds.6 mph51%29.89 "HgN/A
11:20 am77 °FScattered clouds.6 mph61%29.89 "HgN/A
10:50 am79 °FScattered clouds.6 mph58%29.89 "HgN/A
10:20 am77 °FScattered clouds.5 mph61%29.89 "HgN/A
9:50 am75 °FScattered clouds.5 mph65%29.89 "HgN/A
9:20 am75 °FScattered clouds.5 mph69%29.89 "HgN/A
8:50 am75 °FScattered clouds.2 mph69%29.89 "HgN/A
8:20 am73 °FScattered clouds.5 mph78%29.89 "HgN/A
7:50 am72 °FScattered clouds.6 mph83%29.89 "HgN/A
7:20 am70 °FScattered clouds.3 mph88%29.89 "HgN/A
6:50 am68 °FScattered clouds.2 mph88%29.89 "HgN/A
6:20 am68 °FBroken clouds.2 mph88%29.89 "HgN/A
5:50 am66 °FSunny.5 mph94%29.89 "Hg10 mi
5:20 am66 °FClear.6 mph94%29.89 "Hg10 mi
4:50 am64 °FClear.6 mph94%29.89 "Hg10 mi
4:20 am64 °FClear.7 mph94%29.89 "Hg10 mi
3:20 am64 °FClear.7 mph94%29.89 "Hg10 mi
2:50 am64 °FClear.6 mph94%29.89 "Hg10 mi
2:20 am68 °FClear.3 mph88%29.89 "Hg10 mi
1:50 am68 °FClear.5 mph88%29.92 "Hg10 mi
1:20 am66 °FPassing clouds.5 mph88%29.92 "HgN/A
12:50 am66 °FPassing clouds.5 mph88%29.92 "HgN/A
12:20 am68 °FPassing clouds.6 mph88%29.92 "HgN/A
11:50 pm
Sun, May 28
68 °FPassing clouds.5 mph83%29.89 "HgN/A
11:20 pm68 °FPassing clouds.5 mph83%29.89 "HgN/A
10:20 pm68 °FPassing clouds.3 mph83%29.89 "HgN/A
9:50 pm68 °FPassing clouds.1 mph83%29.89 "HgN/A
9:20 pm70 °FPassing clouds.5 mph73%29.89 "HgN/A
8:50 pm70 °FPassing clouds.2 mph73%29.86 "HgN/A
8:20 pm72 °FPassing clouds.5 mph65%29.86 "HgN/A
7:50 pm73 °FPassing clouds.7 mph65%29.86 "HgN/A
7:20 pm75 °FPassing clouds.7 mph57%29.86 "HgN/A
6:50 pm79 °FPassing clouds.10 mph51%29.83 "HgN/A
6:20 pm79 °FPassing clouds.12 mph54%29.83 "HgN/A
5:50 pm81 °FPassing clouds.13 mph51%29.83 "HgN/A
5:20 pm82 °FPassing clouds.12 mph48%29.83 "HgN/A
4:50 pm84 °FPassing clouds.13 mph45%29.83 "HgN/A
4:20 pm84 °FPassing clouds.12 mph40%29.83 "HgN/A
Weather by CustomWeather, © 2017

See weather overviewHow to use our weather pages